STARLINK-32362, 61845

Orbit data source: Space-Track

STARLINK-32362, 61845 is a payload satellite owned by SpaceX/Seattle (US) in LEO that was launched on Thu, 07 Nov 2024 UTC via an FALCON 9 launch vehicle from the Air Force Eastern Test Range (AFETR). Payload-class satellites include a variety of spacecraft equipped with specific instruments for various scientific and technological missions. These include communications satellites like Starlink; space stations such as the ISS; scientific satellites like the Hubble; Earth observation satellites from companies like Planet Labs, Umbra, and HawkEye 360; GPS; miniature CubeSats for education and research; and military/defense satellites.

Loading next visibility...
Identifier
61845, 2024-202A
Orbit
LEO
Country
Flag of USUS
Related business
Manufacturer
SpaceX/Seattle
Mission
Operational Commercial Communications
Bus & Motor
STARLINK V2M, Unknown motor
Mass
730 kg wet, ~700 kg dry
Launch date (UTC)
2024-11-07 (2 years ago)
Launch vehicle
FALCON 9
Launch site
Air Force Eastern Test Range (AFETR)
Object type
Payload
Rocket body
Debris
Shape & HBR
Box + 2 Pan, 17.7 m
Radar Cross Section
33.884 m², Large (>1 m²)

Expand to show TLE details & history
Last TLE update: 1 day ago

TLE from 1 day ago
0 STARLINK-32362
1 61845U 24202A   26170.53664275  .00000792  00000-0  38301-4 0  9995
2 61845  43.0011  11.5831 0000497 291.3661  68.7138 15.27584334 91625
Epoch: 2026-06-19T12:52Z
TLE epoch observation values (Epoch: 2026-06-19T12:52:45.933Z)
Latitude
0.00001°
Longitude
-89.37249°
Altitude
482.688 km
Speed
7.626 km/s
True Right ascension
00h 46m 19s
True Declination
0° 00' 00"
Sunlit
Object was in daylight at epoch
Visualization orbit readout
Latitude
Unknown
Longitude
Unknown
Altitude
Unknown
Speed
Unknown
Apparent Right ascension
Unknown
Apparent Declination
Unknown
Sunlit
N/A
Visualization observer readout
Local Sidereal Time
07:19:11
Azimuth
Unknown
Elevation
Unknown
Doppler factor
Unknown
Orbital elements
Apogee altitude
485.322 km
Perigee altitude
484.64 km
Semi-major axis
6,863.118 km
Eccentricity
0.00005
Inclination
43.0011°
RAAN
11.5831°
Arg. of periapsis
291.3661°
True anomaly
68.71911°
Mean anomaly
68.7138°
Eccentric anomaly
68.71645°
Mean motion
3.81734 °/min
Orbital period
94.31 mins
BSTAR
0.000038301
Loading maneuver chart data...
Computing Atmospheric mass density...
Loading historical data...
Loading historical data...
Loading historical data...
Loading historical data...
Loading historical data...
Loading historical data...
Loading historical data...

Documentation

Showing up to 5 results
|